Location: Lane
(33.5226°N, 79.8788°W)
Time: 09:39:28
(UTC+00:00)

Altair - Pass Details

Date: 08 October 2022
Orbit: 1501 x 1682 km, 47.2° (Epoch: 30 November)

Event Time Altitude Azimuth Distance (km) Brightness Sun altitude
Rises 14:35:01 0° 306° (NW) 4,880 9.6 36.5°
Reaches altitude 10° 14:38:10 10° 308° (NW) 3,909 9.2 37.0°
Maximum altitude 14:48:17 74° 34° (NNE) 1,736 8.4 38.6°
Drops below altitude 10° 14:58:26 10° 119° (ESE) 3,931 10.7 40.1°
Sets 15:01:36 0° 121° (ESE) 4,908 11.0 40.5°
